User: anonymous   Login
Location: Newark
(14.6333°N, 90.5000°W)
Time: 12:44:26
(UTC+00:00)
Language:

QB50P2 - Orbit

View from above orbital plane
View from above orbital plane
View from above satellite
View from above satellite

Ground track
Ground track

The orbit data is extracted from the following two-line orbital elements,

1 40032U 14033Y   20020.75250771 +.00000155 +00000-0 +22608-4 0  9991
2 40032 097.9026 302.8975 0013192 067.7174 292.5440 14.88586641302862
Epoch (UTC): 20 January 2020 18:03:36
Eccentricity: 0.0013192
inclination: 97.9026°
perigee height: 593 km
apogee height: 611 km
right ascension of ascending node: 302.8975°
argument of perigee: 67.7174°
revolutions per day: 14.88586641
mean anomaly at epoch: 292.5440°
orbit number at epoch: 30286

The dashed part of the orbit path shows where the satellite is in the earth's shadow,  

DLR